Location: New Plymouth
(39.0670°S, 174.0830°E)
Time: 09:45:01
(UTC+13:00)

Lacrosse 5 - Visible Passes

Search period start: 22 November 2019 00:00
Search period end: 02 December 2019 00:00
Orbit: 715 x 724 km, 57.0° (Epoch: 20 November)

Date Brightness Start Highest point End Pass type
(mag) Time Alt. Az. Time Alt. Az. Time Alt. Az.
22 Nov 3.7 20:58:43 10° SSW 21:02:45 22° SSE 21:06:45 10° E visible
22 Nov 1.8 22:41:07 10° SW 22:46:17 84° NW 22:47:24 56° NNE visible
23 Nov 2.3 21:47:59 10° SW 21:53:04 55° SE 21:56:10 23° ENE visible
23 Nov 3.5 23:31:38 10° WSW 23:35:22 24° WNW 23:35:22 24° WNW visible
24 Nov 3.1 20:55:00 10° SSW 20:59:41 33° SE 21:04:19 10° E visible
24 Nov 2.5 22:37:51 10° SW 22:42:46 45° NW 22:44:10 36° NNW visible
25 Nov 1.9 21:44:30 10° SW 21:49:42 85° NW 21:53:02 22° NE visible
25 Nov 4.2 23:30:02 10° W 23:31:55 12° WNW 23:32:15 12° WNW visible
26 Nov 2.3 20:51:23 10° SW 20:56:27 54° SE 21:01:29 10° ENE visible
26 Nov 3.5 22:35:01 10° WSW 22:39:06 24° WNW 22:41:10 19° NNW visible
27 Nov 2.6 21:41:15 10° SW 21:46:11 46° NW 21:50:10 15° NNE visible
28 Nov 4.3 22:33:22 10° W 22:35:19 12° WNW 22:37:17 10° NW visible
29 Nov 3.7 21:38:24 10° WSW 21:42:30 24° WNW 21:46:35 10° N visible
01 Dec 4.4 21:36:41 10° W 21:38:43 12° WNW 21:40:46 10° NW visible
